Stations météo

Publicité
Auch, France (7622): Température de l'air & dewpoint: 15.10.2017 19:00:00 - 21.10.2017 19:00:00 (CEST)Auch, France (7622): Température de l'air 5cm: 15.10.2017 19:00:00 - 21.10.2017 19:00:00 (CEST)Auch, France (7622): Température de l'air -20cm & Température de l'air -100cm: 15.10.2017 19:00:00 - 21.10.2017 19:00:00 (CEST)Auch, France (7622): Vitesse du vent & gusts: 15.10.2017 19:00:00 - 21.10.2017 19:00:00 (CEST)Auch, France (7622): Direction du vent: 15.10.2017 19:00:00 - 21.10.2017 19:00:00 (CEST)Auch, France (7622): reduced air pressure: 15.10.2017 19:00:00 - 21.10.2017 19:00:00 (CEST)Auch, France (7622): visibility: 15.10.2017 19:00:00 - 21.10.2017 19:00:00 (CEST)Auch, France (7622): Ensoleillement: 15.10.2017 19:00:00 - 21.10.2017 19:00:00 (CEST)Auch, France (7622): Quantités de précipitations: 15.10.2017 19:00:00 - 21.10.2017 19:00:00 (CEST)
Date & Time tt [°C] td [°C] tt 5cm [°C] tt -20cm [°C] tt -100cm [°C] ff [km/h] ff [knt] fx [km/h] fx [knt] dd ppp [hPa] vv [km] sd [min] rr [mm]
21.10.2017 19:00:00 14,5 12,2 13,8 16,3 18,0 4 2 21 11 SW 1025,3 20 0 0,0
21.10.2017 18:00:00 15,0 11,8 14,5 16,3 17,9 11 6 27 14 SW 1024,9 20 0 0,0
21.10.2017 17:00:00 15,0 11,9 13,5 16,2 17,9 8 5 34 18 WSW 1024,6 20 0 0,2
21.10.2017 16:00:00 15,1 11,7 14,8 16,1 18,0 17 9 31 17 NW 1024,2 10 0 0,0
21.10.2017 15:00:00 16,5 12,8 16,2 16,1 18,0 7 4 16 8 WSW 1023,5 20 0 0,0
21.10.2017 14:00:00 15,9 13,0 15,4 16,0 18,0 6 3 16 9 W 1023,8 20 0 0,0
21.10.2017 13:00:00 14,8 14,3 14,4 16,0 18,0 8 4 32 17 WNW 1023,8 20 0 0,8
21.10.2017 12:00:00 15,2 14,6 14,9 16,0 18,0 6 4 24 13 W 1023,5 3,3 0 0,6
21.10.2017 11:00:00 15,4 14,1 14,0 15,9 18,0 8 5 12 6 S 1022,8 20 0 0,0
21.10.2017 10:00:00 14,3 13,2 13,8 16,0 18,0 10 5 19 10 S 1022,5 11 0 0,0
21.10.2017 09:00:00 14,2 13,9 13,2 16,0 18,0 8 4 17 9 S 1021,6 20 0 0,0
21.10.2017 08:00:00 13,6 13,6 12,8 16,1 18,0 7 4 19 10 SSW 1020,7 20 0 0,0
21.10.2017 07:00:00 13,2 13,2 11,9 16,1 18,0 8 5 18 10 S 1019,4 9 0 0,0
21.10.2017 06:00:00 13,4 13,4 12,7 16,2 18,0 11 6 15 8 S 1018,8 8 0 0,0
21.10.2017 05:00:00 12,6 12,6 11,6 16,3 18,0 5 3 11 6 S 1018,3 7 0 0,0
21.10.2017 04:00:00 11,7 11,7 8,2 16,4 18,0 9 5 10 6 S 1018,3 2,4 0 0,0
21.10.2017 03:00:00 8,9 8,9 5,9 16,5 18,0 0 0 5 3 N 1018,5 18 0 0,0
21.10.2017 02:00:00 9,3 9,2 6,1 16,7 18,0 0 0 6 3 N 1018,3 12 0 0,0
21.10.2017 01:00:00 10,0 9,8 6,4 16,8 18,0 4 2 6 3 SSW 1018,4 16 0 0,0
21.10.2017 00:00:00 10,5 10,3 6,7 16,9 18,0 2 1 7 4 S 1018,6 13 0 0,0
20.10.2017 23:00:00 10,6 10,1 7,0 17,0 18,0 4 2 6 4 S 1018,7 20 0 0,0
20.10.2017 22:00:00 11,5 10,7 8,2 17,1 18,0 2 1 5 3 S 1018,5 19 0 0,0
20.10.2017 21:00:00 13,0 11,6 8,9 17,1 18,0 0 0 3 1 N 1018,2 20 0 0,0
20.10.2017 20:00:00 15,4 12,5 10,3 17,0 18,0 0 0 4 2 N 1018,1 20 0 0,0
20.10.2017 19:00:00 20,0 12,7 15,8 16,9 18,0 2 1 7 4 E 1017,3 20 43 0,0
20.10.2017 18:00:00 20,7 12,7 20,8 16,7 18,0 5 3 10 5 ESE 1017,3 19 34 0,0
20.10.2017 17:00:00 20,8 12,7 21,2 16,5 18,1 4 2 9 5 SE 1017,6 20 18 0,0
20.10.2017 16:00:00 19,9 12,9 21,4 16,3 18,0 2 1 6 3 N 1017,7 20 0 0,0
20.10.2017 15:00:00 19,8 12,5 21,7 16,2 18,0 2 1 6 3 NW 1017,8 20 0 0,0
20.10.2017 14:00:00 19,3 12,1 21,3 16,0 18,0 0 0 6 3 N 1018,1 20 1 0,0
20.10.2017 13:00:00 18,2 12,0 17,7 16,0 18,0 0 0 10 5 N 1018,8 20 21 0,0
20.10.2017 12:00:00 15,1 13,1 14,2 16,0 18,0 7 4 10 5 S 1018,9 20 0 0,0
20.10.2017 11:00:00 12,8 12,8 12,2 16,0 18,0 7 4 9 5 S 1018,5 20 0 0,0
20.10.2017 10:00:00 11,5 11,5 9,8 16,2 18,1 6 3 9 5 SSW 1018,1 20 0 0,0
20.10.2017 09:00:00 10,0 10,0 8,7 16,3 18,0 7 4 9 5 SSW 1017,4 20 0 0,0
20.10.2017 08:00:00 9,2 9,2 6,8 16,4 18,0 6 3 9 5 SSW 1016,8 20 0 0,0
20.10.2017 07:00:00 8,9 8,9 6,0 16,5 18,0 4 2 6 3 S 1016,6 16 0 0,0
20.10.2017 06:00:00 9,2 9,2 6,7 16,7 18,0 2 1 7 4 SW 1016,2 13 0 0,2
20.10.2017 05:00:00 9,9 9,9 7,8 16,8 18,0 0 0 7 4 N 1015,9 13 0 0,0
20.10.2017 04:00:00 10,5 10,5 8,4 16,9 18,1 6 3 8 5 SSW 1015,9 17 0 0,0
20.10.2017 03:00:00 10,4 10,4 9,0 17,1 18,0 5 3 13 7 S 1015,5 18 0 0,0
20.10.2017 02:00:00 10,9 10,9 8,6 17,2 18,0 10 5 13 7 SSW 1015,1 18 0 0,0
20.10.2017 01:00:00 10,3 10,1 7,9 17,3 18,0 0 0 8 5 N 1014,5 17 0 0,0
20.10.2017 00:00:00 10,8 10,6 7,6 17,5 18,0 2 1 5 3 ESE 1014,5 18 0 0,0
19.10.2017 23:00:00 11,5 11,2 7,7 17,6 18,0 0 0 2 1 N 1013,8 14 0 0,0
19.10.2017 22:00:00 12,2 11,7 9,0 17,7 18,0 0 0 4 2 N 1013,3 20 0 0,0
19.10.2017 21:00:00 13,0 11,9 9,4 17,8 18,0 0 0 9 5 N 1013,1 20 0 0,0
19.10.2017 20:00:00 14,6 12,6 10,4 17,7 18,0 0 0 3 2 N 1012,7 20 0 0,0
19.10.2017 19:00:00 17,2 12,9 13,8 17,7 18,0 0 0 6 3 N 1012,4 20 23 0,0
19.10.2017 18:00:00 18,8 12,8 18,4 17,6 18,0 4 2 7 4 ESE 1011,3 20 25 0,0
19.10.2017 17:00:00 18,9 11,9 19,5 17,5 18,0 3 1 5 3 W 1010,7 20 12 0,0
19.10.2017 16:00:00 19,3 13,7 19,3 17,4 18,0 2 1 8 4 S 1011,3 19 15 0,0
19.10.2017 15:00:00 17,6 13,7 18,5 17,2 18,0 4 2 10 6 N 1011,5 20 1 0,0
19.10.2017 14:00:00 17,1 13,6 18,1 17,2 18,0 3 2 12 7 W 1011,9 20 0 0,0
19.10.2017 13:00:00 16,5 14,0 16,6 17,2 18,0 5 3 13 7 W 1012,1 20 0 0,0
19.10.2017 12:00:00 15,5 13,5 16,4 17,2 18,0 9 5 16 9 S 1012,2 20 0 0,0
19.10.2017 11:00:00 14,8 14,5 14,4 17,2 18,0 10 6 14 8 S 1012,4 20 0 0,0
19.10.2017 10:00:00 13,6 13,6 13,1 17,3 18,0 7 4 10 5 S 1011,7 20 0 0,0
19.10.2017 09:00:00 12,9 12,9 12,3 17,4 18,0 5 3 6 4 SSW 1011,4 18 0 0,0
19.10.2017 08:00:00 12,5 12,5 11,6 17,5 18,0 3 2 6 3 S 1011,2 15 0 0,0
19.10.2017 07:00:00 11,6 11,6 10,0 17,6 18,0 2 1 6 3 SE 1011,2 12 0 0,0
19.10.2017 06:00:00 11,1 10,9 8,4 17,7 18,0 5 3 8 4 SW 1010,8 0,7 0 0,0
19.10.2017 05:00:00 12,6 12,3 10,2 17,8 18,0 0 0 9 5 N 1010,2 15 0 0,0
19.10.2017 04:00:00 13,8 13,2 13,0 17,9 18,0 4 2 8 5 SW 1010,8 20 0 0,0
19.10.2017 03:00:00 14,2 13,6 14,0 18,0 18,0 4 2 9 5 S 1011,0 20 0 0,0
19.10.2017 02:00:00 14,4 13,8 14,1 18,0 18,0 6 3 13 7 WSW 1010,5 20 0 0,0
19.10.2017 01:00:00 14,5 13,9 14,2 18,1 18,0 6 4 14 8 W 1010,1 20 0 0,0
19.10.2017 00:00:00 14,5 14,0 13,5 18,2 18,0 7 4 12 7 W 1010,4 20 0 0,0
18.10.2017 23:00:00 14,6 14,0 13,6 18,2 18,0 5 3 12 7 W 1009,4 20 0 0,2
18.10.2017 22:00:00 15,7 15,1 14,8 18,3 18,0 4 2 8 5 WSW 1009,0 20 0 0,6
18.10.2017 21:00:00 16,2 15,6 15,4 18,2 18,0 2 1 6 3 NW 1009,5 13 0 1,6
18.10.2017 20:00:00 16,6 15,6 15,7 18,2 18,0 5 3 7 4 S 1009,2 13 0 0,4
18.10.2017 19:00:00 17,7 15,1 16,0 18,2 18,0 2 1 6 3 S 1008,3 12 0 0,2
18.10.2017 18:00:00 18,2 15,1 17,7 18,1 18,0 4 2 8 4 N 1007,8 20 0 0,0
18.10.2017 17:00:00 18,4 14,9 17,3 18,0 18,0 8 4 39 21 SSW 1008,7 20 0 0,2
18.10.2017 16:00:00 20,4 14,5 17,3 17,9 18,0 22 12 37 20 SW 1009,7 10 0 0,2
18.10.2017 15:00:00 23,8 12,7 25,1 17,8 18,0 9 5 17 9 WSW 1008,3 20 7 0,0
18.10.2017 14:00:00 24,1 12,4 23,4 17,6 18,0 8 4 25 14 ESE 1008,6 19 14 0,0
18.10.2017 13:00:00 23,2 13,4 22,1 17,5 17,9 15 8 26 14 E 1009,7 20 35 0,0
18.10.2017 12:00:00 21,0 14,2 20,8 17,5 18,0 11 6 24 13 ESE 1010,5 20 30 0,0
18.10.2017 11:00:00 19,7 14,5 17,3 17,5 18,0 9 5 19 11 E 1011,5 20 12 0,0
18.10.2017 10:00:00 17,6 15,0 16,8 17,6 18,0 4 2 13 7 ESE 1012,4 17 27 0,2
18.10.2017 09:00:00 15,3 14,5 11,3 17,7 18,0 2 1 6 3 N 1012,4 13 23 0,0
18.10.2017 08:00:00 14,7 13,1 11,9 17,7 18,0 4 2 6 3 N 1012,5 13 0 0,0
18.10.2017 07:00:00 16,0 13,8 13,9 17,8 17,9 0 0 7 4 N 1012,7 19 0 0,0
18.10.2017 06:00:00 17,0 14,3 15,7 17,8 18,0 2 1 18 10 SSE 1013,1 20 0 0,0
18.10.2017 05:00:00 17,3 14,4 15,9 17,9 18,0 6 3 16 9 SSE 1013,5 20 0 0,0
18.10.2017 04:00:00 17,4 14,7 16,6 17,9 18,0 7 4 14 7 SE 1014,1 20 0 0,0
18.10.2017 03:00:00 17,4 14,7 16,1 18,0 17,9 6 3 13 7 SE 1014,6 20 0 0,0
18.10.2017 02:00:00 17,4 14,9 16,4 18,1 17,9 9 5 18 10 SSE 1014,7 20 0 0,0
18.10.2017 01:00:00 17,2 15,0 15,7 18,2 18,0 8 5 17 9 SE 1015,1 20 0 0,0
18.10.2017 00:00:00 17,0 14,8 15,3 18,2 17,9 7 4 16 9 SSE 1015,8 20 0 0,0
17.10.2017 23:00:00 17,4 14,9 15,7 18,3 17,9 9 5 21 11 SE 1015,9 20 0 0,0
17.10.2017 22:00:00 17,6 14,7 16,1 18,4 17,9 3 2 24 13 SE 1015,8 20 0 0,0
17.10.2017 21:00:00 18,1 14,6 16,3 18,4 17,9 5 3 21 11 ESE 1015,9 20 0 0,0
17.10.2017 20:00:00 19,2 14,2 17,1 18,3 17,9 3 2 18 10 SW 1016,1 20 0 0,0
17.10.2017 19:00:00 21,1 14,3 20,1 18,3 17,9 10 5 24 13 E 1015,6 20 40 0,0
17.10.2017 18:00:00 22,9 13,9 23,1 18,1 17,9 13 7 31 17 ESE 1015,6 20 48 0,0
17.10.2017 17:00:00 24,4 13,0 25,9 17,9 17,9 14 8 35 19 ESE 1015,8 20 56 0,0
17.10.2017 16:00:00 25,3 13,2 28,0 17,8 17,9 15 8 29 16 ESE 1016,0 20 60 0,0
17.10.2017 15:00:00 25,2 12,8 27,5 17,6 17,9 14 8 29 16 ESE 1016,6 20 60 0,0
17.10.2017 14:00:00 24,6 13,5 26,0 17,4 17,9 14 8 29 16 SE 1017,7 20 60 0,0
17.10.2017 13:00:00 22,9 14,2 24,9 17,3 17,9 17 9 29 16 SE 1018,4 20 60 0,0
17.10.2017 12:00:00 21,5 14,4 22,8 17,3 17,9 14 8 26 14 ESE 1018,9 20 60 0,0
17.10.2017 11:00:00 19,9 15,1 20,6 17,3 17,9 14 7 32 17 SSE 1019,7 20 60 0,0
17.10.2017 10:00:00 18,2 15,4 15,4 17,4 17,9 7 4 13 7 SE 1020,1 19 60 0,0
17.10.2017 09:00:00 14,7 13,9 11,7 17,5 17,9 0 0 4 2 N 1020,2 8 19 0,0
17.10.2017 08:00:00 15,9 14,3 12,9 17,6 17,9 0 0 17 9 N 1020,1 14 0 0,0
17.10.2017 07:00:00 16,8 15,1 15,3 17,7 17,9 7 4 22 12 SE 1020,2 18 0 0,0
17.10.2017 06:00:00 16,8 15,0 15,8 17,8 17,9 3 2 26 14 ESE 1020,8 18 0 0,0
17.10.2017 05:00:00 16,8 15,7 12,6 17,9 17,9 9 5 19 10 SE 1021,2 19 0 0,0
17.10.2017 04:00:00 15,1 13,8 11,9 18,0 17,9 0 0 6 3 N 1021,9 16 0 0,0
17.10.2017 03:00:00 16,4 14,4 14,3 18,1 17,9 4 2 15 8 SSE 1022,6 20 0 0,0
17.10.2017 02:00:00 16,7 14,7 15,1 18,2 17,9 5 3 16 9 SE 1023,1 20 0 0,0
17.10.2017 01:00:00 16,5 14,3 13,4 18,3 17,9 6 3 12 6 SE 1023,5 20 0 0,0
17.10.2017 00:00:00 16,5 13,8 14,0 18,4 17,9 4 2 11 6 ESE 1023,8 20 0 0,0
16.10.2017 23:00:00 17,7 14,0 14,7 18,4 17,9 2 1 17 9 SSE 1023,9 20 0 0,0
16.10.2017 22:00:00 18,8 13,9 17,5 18,5 17,9 5 3 22 12 SE 1023,6 20 0 0,0
16.10.2017 21:00:00 19,9 14,3 18,6 18,4 17,9 9 5 24 13 SE 1023,2 20 0 0,0
16.10.2017 20:00:00 21,1 14,3 19,9 18,4 17,9 8 4 19 10 ESE 1023,0 20 0 0,0
16.10.2017 19:00:00 23,4 14,1 22,3 18,3 17,9 6 4 18 10 E 1022,5 20 50 0,0
16.10.2017 18:00:00 25,4 13,3 26,5 18,1 17,9 11 6 22 12 SE 1021,7 20 60 0,0
16.10.2017 17:00:00 26,6 12,6 28,8 17,9 17,9 13 7 24 13 ESE 1021,4 20 60 0,0
16.10.2017 16:00:00 27,0 13,0 29,5 17,7 17,9 13 7 32 17 SE 1021,6 20 60 0,0
16.10.2017 15:00:00 26,6 13,0 28,7 17,5 17,8 14 8 30 16 ESE 1021,7 20 60 0,0
16.10.2017 14:00:00 25,8 13,6 27,4 17,3 17,9 14 8 30 16 SE 1022,4 20 60 0,0
16.10.2017 13:00:00 24,4 14,8 25,7 17,2 17,9 15 8 29 16 SE 1022,9 20 60 0,0
16.10.2017 12:00:00 22,7 15,0 23,8 17,2 17,9 14 8 27 14 SE 1023,0 19 60 0,0
16.10.2017 11:00:00 20,8 15,3 21,3 17,2 17,9 14 8 25 13 SE 1023,1 20 60 0,0
16.10.2017 10:00:00 19,0 15,3 17,9 17,3 17,9 13 7 24 13 SSE 1023,1 20 60 0,0
16.10.2017 09:00:00 17,5 15,3 15,9 17,3 17,9 10 6 22 12 SSE 1022,5 20 26 0,0
16.10.2017 08:00:00 16,9 15,1 15,9 17,4 17,9 11 6 20 11 SSE 1021,9 20 0 0,0
16.10.2017 07:00:00 17,0 15,3 15,4 17,5 17,9 8 5 16 9 SSE 1021,8 20 0 0,0
16.10.2017 06:00:00 17,0 15,3 14,2 17,5 17,9 9 5 17 9 SSE 1021,5 20 0 0,0
16.10.2017 05:00:00 17,0 15,3 15,2 17,6 17,9 3 2 21 11 SSE 1021,9 20 0 0,0
16.10.2017 04:00:00 17,5 15,5 16,2 17,7 17,9 8 4 16 9 SE 1021,9 20 0 0,0
16.10.2017 03:00:00 18,0 15,6 17,0 17,7 17,9 8 5 27 15 SSE 1022,3 20 0 0,0
16.10.2017 02:00:00 18,7 16,1 18,0 17,8 17,9 14 8 29 16 SE 1022,6 20 0 0,0
16.10.2017 01:00:00 18,5 16,3 17,4 17,8 17,9 10 5 23 12 SE 1023,0 20 0 0,0
16.10.2017 00:00:00 18,3 15,9 17,3 17,9 17,9 9 5 20 11 SE 1023,3 20 0 0,0
15.10.2017 23:00:00 18,5 15,9 16,2 17,9 17,9 7 4 16 9 SE 1023,4 20 0 0,0
15.10.2017 22:00:00 18,8 15,7 16,2 18,0 17,9 4 2 14 8 SSW 1023,3 20 0 0,0
15.10.2017 21:00:00 19,9 15,3 17,2 17,9 17,9 4 2 16 8 S 1023,1 20 0 0,0
15.10.2017 20:00:00 20,9 15,0 17,1 17,9 17,9 3 2 13 7 ENE 1023,0 19 0 0,0
15.10.2017 19:00:00 23,1 14,6 21,8 17,7 17,9 7 4 23 13 SE 1022,5 20 48 0,0

tt = Température de l'air
td = dewpoint
tt 5cm = Température de l'air 5cm
tt -20cm = Température de l'air -20cm
tt -100cm = Température de l'air -100cm
ff = Vitesse du vent
fx = gusts
dd = Direction du vent
ppp = reduced air pressure
vv = visibility
sd = Ensoleillement
rr = Quantités de précipitations

stations d'obs. à proximité